DMSP 5D-2 F13 DEB, 40415

Orbit data source: Space-Track

DMSP 5D-2 F13 DEB, 40415 is space debris in SSO originally from a launch on Fri, 24 Mar 1995 UTC launched from the Air Force Western Test Range (AFWTR). Debris objects in space refer to the collection of defunct objects orbiting the Earth. Examples of debris include non-operational satellites, rocket bodies, and fragments generated from explosions, collisions, or faulty payload assembly.

Loading next visibility...
Identifier
40415, 1995-015AC
Orbit
SSO
Country
Flag of USUS
Related business
Manufacturer
Unknown
Mission
Spacecraft
Bus & Motor
Unknown
Mass
Unknown
Launch date (UTC)
1995-03-24 (30 years ago)
Launch vehicle
Unknown
Launch site
Air Force Western Test Range (AFWTR)
Object type
Payload
Rocket body
Debris
Shape & HBR
Unknown
Radar Cross Section
Small (<0.1 m²)

Expand to show TLE details & history
Last TLE update: 2 days ago

TLE from 2 days ago
0 DMSP 5D-2 F13 DEB
1 40415U 95015AC  25256.98653421  .00001630  00000-0  67510-3 0  9994
2 40415  98.7453 279.1739 0006946  70.5638 289.6293 14.27985307546600
Epoch: 2025-09-13T23:40Z
TLE epoch observation values (Epoch: 2025-09-13T23:40:36.555Z)
Latitude
-0.00002°
Longitude
-69.19043°
Altitude
799.725 km
Speed
7.455 km/s
True Right ascension
18h 36m 41s
True Declination
0° 00' 00"
Sunlit
Object was in daylight at epoch
Visualization orbit readout
Latitude
Unknown
Longitude
Unknown
Altitude
Unknown
Speed
Unknown
Apparent Right ascension
Unknown
Apparent Declination
Unknown
Sunlit
N/A
Visualization observer readout
Local Sidereal Time
17:22:40
Azimuth
Unknown
Elevation
Unknown
Doppler factor
Unknown
Orbital elements
Apogee altitude
800.606 km
Perigee altitude
790.64 km
Semi-major axis
7,173.76 km
Eccentricity
0.00069
Inclination
98.7453°
RAAN
279.1739°
Arg. of periapsis
70.5638°
True anomaly
289.55431°
Mean anomaly
289.6293°
Eccentric anomaly
289.59181°
Mean motion
3.57209 °/min
Orbital period
100.78 mins
BSTAR
0.0006751
Loading maneuver chart data...
Computing Atmospheric mass density...

Documentation

Showing up to 5 results
|